Time,TemperatureF,DewpointF,PressureIn,WindDirection,WindDirectionDegrees,WindSpeedMPH,WindSpeedGustMPH,Humidity,HourlyPrecipIn,Conditions,Clouds,dailyrainin,SoftwareType,DateUTC
2013-11-27 00:02:00,52.0,44.0,30.14,North,355,0.0,0.0,74,0.00,,,0.00,Wunderground v.1.15,2013-11-27 07:02:00,
2013-11-27 00:07:00,50.9,43.6,30.14,NNE,15,0.0,0.0,76,0.00,,,0.00,Wunderground v.1.15,2013-11-27 07:07:00,
2013-11-27 00:11:00,50.3,43.4,30.14,NNE,16,0.0,0.0,77,0.00,,,0.00,Wunderground v.1.15,2013-11-27 07:11:00,
2013-11-27 00:17:00,50.1,43.5,30.14,NNW,343,0.0,0.0,78,0.00,,,0.00,Wunderground v.1.15,2013-11-27 07:17:00,
2013-11-27 00:22:00,49.9,43.6,30.14,North,1,0.0,1.0,79,0.00,,,0.00,Wunderground v.1.15,2013-11-27 07:22:00,
2013-11-27 00:27:00,49.6,43.7,30.14,North,356,0.0,1.0,80,0.00,,,0.00,Wunderground v.1.15,2013-11-27 07:27:00,
2013-11-27 00:32:00,49.4,43.8,30.14,NNW,333,0.0,0.0,81,0.00,,,0.00,Wunderground v.1.15,2013-11-27 07:32:00,
2013-11-27 00:37:00,49.3,43.7,30.14,North,358,0.0,0.0,81,0.00,,,0.00,Wunderground v.1.15,2013-11-27 07:37:00,
2013-11-27 00:41:00,49.1,43.5,30.14,North,357,0.0,0.0,81,0.00,,,0.00,Wunderground v.1.15,2013-11-27 07:41:00,
2013-11-27 00:47:00,49.0,43.7,30.13,NNW,346,0.0,0.0,82,0.00,,,0.00,Wunderground v.1.15,2013-11-27 07:47:00,
2013-11-27 00:51:00,49.2,43.9,30.13,North,359,0.0,0.0,82,0.00,,,0.00,Wunderground v.1.15,2013-11-27 07:51:00,
2013-11-27 00:56:00,49.3,44.0,30.13,NNE,15,0.0,1.0,82,0.00,,,0.00,Wunderground v.1.15,2013-11-27 07:56:00,
2013-11-27 01:01:00,49.4,44.1,30.13,North,6,0.0,0.0,82,0.00,,,0.00,Wunderground v.1.15,2013-11-27 08:01:00,
2013-11-27 01:07:00,49.5,44.2,30.12,North,357,0.0,0.0,82,0.00,,,0.00,Wunderground v.1.15,2013-11-27 08:07:00,
2013-11-27 01:12:00,49.4,44.1,30.12,ENE,72,0.0,1.0,82,0.00,,,0.00,Wunderground v.1.15,2013-11-27 08:12:00,
2013-11-27 01:18:00,49.5,44.6,30.12,ENE,69,0.0,1.0,83,0.00,,,0.00,Wunderground v.1.15,2013-11-27 08:18:00,
2013-11-27 01:23:00,49.7,44.7,30.12,ENE,77,0.0,0.0,83,0.00,,,0.00,Wunderground v.1.15,2013-11-27 08:23:00,
2013-11-27 01:28:00,49.9,45.3,30.12,East,86,0.0,0.0,84,0.00,,,0.00,Wunderground v.1.15,2013-11-27 08:28:00,
2013-11-27 01:33:00,50.1,45.1,30.12,SSE,162,0.0,0.0,83,0.00,,,0.00,Wunderground v.1.15,2013-11-27 08:33:00,
2013-11-27 01:38:00,50.2,45.2,30.12,NNW,340,0.0,0.0,83,0.00,,,0.00,Wunderground v.1.15,2013-11-27 08:38:00,
2013-11-27 01:43:00,50.3,45.3,30.12,NNE,12,0.0,0.0,83,0.00,,,0.00,Wunderground v.1.15,2013-11-27 08:43:00,
2013-11-27 01:48:00,50.0,45.0,30.12,NNE,32,0.0,0.0,83,0.00,,,0.00,Wunderground v.1.15,2013-11-27 08:48:00,
2013-11-27 01:53:00,49.6,44.6,30.12,North,360,0.0,0.0,83,0.00,,,0.00,Wunderground v.1.15,2013-11-27 08:53:00,
2013-11-27 01:59:00,49.5,44.9,30.12,NNE,33,3.0,3.0,84,0.00,,,0.00,Wunderground v.1.15,2013-11-27 08:59:00,
2013-11-27 02:04:00,49.7,45.1,30.12,NNE,27,2.0,4.0,84,0.00,,,0.00,Wunderground v.1.15,2013-11-27 09:04:00,
2013-11-27 02:09:00,50.1,45.5,30.12,NE,43,1.0,4.0,84,0.00,,,0.00,Wunderground v.1.15,2013-11-27 09:09:00,
2013-11-27 02:14:00,50.4,45.4,30.12,North,1,0.0,5.0,83,0.00,,,0.00,Wunderground v.1.15,2013-11-27 09:14:00,
2013-11-27 02:19:00,50.4,45.1,30.12,North,356,0.0,5.0,82,0.00,,,0.00,Wunderground v.1.15,2013-11-27 09:19:00,
2013-11-27 02:24:00,50.3,45.0,30.12,North,3,0.0,1.0,82,0.00,,,0.00,Wunderground v.1.15,2013-11-27 09:24:00,
2013-11-27 02:29:00,49.9,44.9,30.12,North,4,2.0,2.0,83,0.00,,,0.00,Wunderground v.1.15,2013-11-27 09:29:00,
2013-11-27 02:35:00,49.5,44.6,30.12,NNW,345,0.0,1.0,83,0.00,,,0.00,Wunderground v.1.15,2013-11-27 09:35:00,
2013-11-27 02:40:00,49.3,44.7,30.12,NE,38,0.0,0.0,84,0.00,,,0.00,Wunderground v.1.15,2013-11-27 09:40:00,
2013-11-27 02:45:00,49.1,44.5,30.11,NE,45,0.0,0.0,84,0.00,,,0.00,Wunderground v.1.15,2013-11-27 09:45:00,
2013-11-27 02:50:00,49.2,44.9,30.11,ENE,70,0.0,0.0,85,0.00,,,0.00,Wunderground v.1.15,2013-11-27 09:50:00,
2013-11-27 02:55:00,49.6,45.0,30.11,ENE,61,0.0,0.0,84,0.00,,,0.00,Wunderground v.1.15,2013-11-27 09:55:00,
2013-11-27 03:00:00,50.1,44.8,30.10,North,8,0.0,0.0,82,0.00,,,0.00,Wunderground v.1.15,2013-11-27 10:00:00,
2013-11-27 03:05:00,50.7,45.1,30.10,NE,34,0.0,1.0,81,0.00,,,0.00,Wunderground v.1.15,2013-11-27 10:05:00,
2013-11-27 03:10:00,50.8,44.5,30.10,East,82,0.0,1.0,79,0.00,,,0.00,Wunderground v.1.15,2013-11-27 10:10:00,
2013-11-27 03:15:00,50.7,44.4,30.10,North,356,2.0,4.0,79,0.00,,,0.00,Wunderground v.1.15,2013-11-27 10:15:00,
2013-11-27 03:20:00,50.7,44.4,30.10,North,360,0.0,3.0,79,0.00,,,0.00,Wunderground v.1.15,2013-11-27 10:20:00,
2013-11-27 03:25:00,50.9,44.6,30.10,North,360,2.0,4.0,79,0.00,,,0.00,Wunderground v.1.15,2013-11-27 10:25:00,
2013-11-27 03:30:00,51.0,44.7,30.10,NNE,29,1.0,1.0,79,0.00,,,0.00,Wunderground v.1.15,2013-11-27 10:30:00,
2013-11-27 03:35:00,51.0,44.7,30.10,North,10,0.0,4.0,79,0.00,,,0.00,Wunderground v.1.15,2013-11-27 10:35:00,
2013-11-27 03:40:00,50.8,44.5,30.10,North,355,0.0,1.0,79,0.00,,,0.00,Wunderground v.1.15,2013-11-27 10:40:00,
2013-11-27 03:45:00,50.7,44.4,30.10,ENE,59,0.0,1.0,79,0.00,,,0.00,Wunderground v.1.15,2013-11-27 10:45:00,
2013-11-27 03:50:00,50.9,44.6,30.10,NNE,24,1.0,3.0,79,0.00,,,0.00,Wunderground v.1.15,2013-11-27 10:50:00,
2013-11-27 03:55:00,51.0,44.7,30.10,NNW,342,0.0,4.0,79,0.00,,,0.00,Wunderground v.1.15,2013-11-27 10:55:00,
2013-11-27 04:00:00,51.2,44.9,30.10,NNW,347,0.0,1.0,79,0.00,,,0.00,Wunderground v.1.15,2013-11-27 11:00:00,
2013-11-27 04:05:00,51.2,44.6,30.09,North,3,1.0,2.0,78,0.00,,,0.00,Wunderground v.1.15,2013-11-27 11:05:00,
2013-11-27 04:10:00,51.1,44.8,30.09,NNE,29,1.0,2.0,79,0.00,,,0.00,Wunderground v.1.15,2013-11-27 11:10:00,
2013-11-27 04:15:00,50.9,44.6,30.09,ENE,72,1.0,2.0,79,0.00,,,0.00,Wunderground v.1.15,2013-11-27 11:15:00,
2013-11-27 04:20:00,50.8,44.5,30.09,WSW,257,0.0,1.0,79,0.00,,,0.00,Wunderground v.1.15,2013-11-27 11:20:00,
2013-11-27 04:25:00,50.9,44.6,30.09,NNE,18,1.0,1.0,79,0.00,,,0.00,Wunderground v.1.15,2013-11-27 11:25:00,
2013-11-27 04:30:00,51.2,44.9,30.09,NNE,12,1.0,1.0,79,0.00,,,0.00,Wunderground v.1.15,2013-11-27 11:30:00,
2013-11-27 04:35:00,51.6,45.0,30.08,North,6,1.0,4.0,78,0.00,,,0.00,Wunderground v.1.15,2013-11-27 11:35:00,
2013-11-27 04:40:00,52.0,45.0,30.09,NNE,20,0.0,1.0,77,0.00,,,0.00,Wunderground v.1.15,2013-11-27 11:40:00,
2013-11-27 04:45:00,52.2,45.2,30.08,NNE,13,0.0,4.0,77,0.00,,,0.00,Wunderground v.1.15,2013-11-27 11:45:00,
2013-11-27 04:50:00,52.4,45.1,30.08,North,352,0.0,1.0,76,0.00,,,0.00,Wunderground v.1.15,2013-11-27 11:50:00,
2013-11-27 04:55:00,52.6,45.2,30.08,NNE,17,0.0,3.0,76,0.00,,,0.00,Wunderground v.1.15,2013-11-27 11:55:00,
2013-11-27 05:00:00,52.6,44.9,30.08,NNE,20,0.0,1.0,75,0.00,,,0.00,Wunderground v.1.15,2013-11-27 12:00:00,
2013-11-27 05:05:00,52.6,44.9,30.08,ENE,72,0.0,4.0,75,0.00,,,0.00,Wunderground v.1.15,2013-11-27 12:05:00,
2013-11-27 05:10:00,52.7,45.0,30.08,NE,53,1.0,1.0,75,0.00,,,0.00,Wunderground v.1.15,2013-11-27 12:10:00,
2013-11-27 05:15:00,52.9,44.8,30.08,East,92,0.0,3.0,74,0.00,,,0.00,Wunderground v.1.15,2013-11-27 12:15:00,
2013-11-27 05:20:00,53.1,45.0,30.08,ESE,109,0.0,0.0,74,0.00,,,0.00,Wunderground v.1.15,2013-11-27 12:20:00,
2013-11-27 05:25:00,53.3,44.9,30.08,NNW,334,0.0,1.0,73,0.00,,,0.00,Wunderground v.1.15,2013-11-27 12:25:00,
2013-11-27 05:30:00,53.5,44.7,30.08,NE,37,1.0,1.0,72,0.00,,,0.00,Wunderground v.1.15,2013-11-27 12:30:00,
2013-11-27 05:35:00,53.7,44.5,30.08,NNE,32,1.0,2.0,71,0.00,,,0.00,Wunderground v.1.15,2013-11-27 12:35:00,
2013-11-27 05:40:00,54.0,44.8,30.08,NW,321,1.0,3.0,71,0.00,,,0.00,Wunderground v.1.15,2013-11-27 12:40:00,
2013-11-27 05:45:00,54.1,44.5,30.08,NNE,27,4.0,5.0,70,0.00,,,0.00,Wunderground v.1.15,2013-11-27 12:45:00,
2013-11-27 05:50:00,53.8,44.2,30.08,North,4,2.0,8.0,70,0.00,,,0.00,Wunderground v.1.15,2013-11-27 12:50:00,
2013-11-27 05:55:00,53.4,44.6,30.08,North,11,3.0,8.0,72,0.00,,,0.00,Wunderground v.1.15,2013-11-27 12:55:00,
2013-11-27 06:00:00,53.0,44.6,30.09,North,8,3.0,7.0,73,0.00,,,0.00,Wunderground v.1.15,2013-11-27 13:00:00,
2013-11-27 06:05:00,52.5,44.4,30.08,SSW,210,0.0,8.0,74,0.00,,,0.00,Wunderground v.1.15,2013-11-27 13:05:00,
2013-11-27 06:10:00,52.1,44.4,30.08,NNW,343,4.0,4.0,75,0.00,,,0.00,Wunderground v.1.15,2013-11-27 13:10:00,
2013-11-27 06:15:00,51.5,44.2,30.09,NNE,27,3.0,6.0,76,0.00,,,0.00,Wunderground v.1.15,2013-11-27 13:15:00,
2013-11-27 06:20:00,51.0,44.0,30.08,North,353,0.0,4.0,77,0.00,,,0.00,Wunderground v.1.15,2013-11-27 13:20:00,
2013-11-27 06:25:00,50.4,43.8,30.08,North,5,0.0,4.0,78,0.00,,,0.00,Wunderground v.1.15,2013-11-27 13:25:00,
2013-11-27 06:30:00,49.9,43.6,30.08,East,84,0.0,1.0,79,0.00,,,0.00,Wunderground v.1.15,2013-11-27 13:30:00,
2013-11-27 06:35:00,49.8,43.9,30.08,ESE,114,0.0,2.0,80,0.00,,,0.00,Wunderground v.1.15,2013-11-27 13:35:00,
2013-11-27 06:40:00,49.7,43.8,30.08,NE,51,0.0,3.0,80,0.00,,,0.00,Wunderground v.1.15,2013-11-27 13:40:00,
2013-11-27 06:45:00,49.7,43.8,30.09,SE,139,0.0,4.0,80,0.00,,,0.00,Wunderground v.1.15,2013-11-27 13:45:00,
2013-11-27 06:50:00,49.7,43.8,30.09,SE,129,0.0,1.0,80,0.00,,,0.00,Wunderground v.1.15,2013-11-27 13:50:00,
2013-11-27 06:55:00,49.7,43.8,30.09,WNW,289,0.0,2.0,80,0.00,,,0.00,Wunderground v.1.15,2013-11-27 13:55:00,
2013-11-27 07:00:00,49.7,43.8,30.08,ESE,103,0.0,1.0,80,0.00,,,0.00,Wunderground v.1.15,2013-11-27 14:00:00,
2013-11-27 07:05:00,49.7,43.8,30.08,SE,124,0.0,2.0,80,0.00,,,0.00,Wunderground v.1.15,2013-11-27 14:05:00,
2013-11-27 07:10:00,49.7,43.8,30.08,NNE,29,2.0,6.0,80,0.00,,,0.00,Wunderground v.1.15,2013-11-27 14:10:00,
2013-11-27 07:15:00,49.5,43.6,30.08,NE,34,3.0,8.0,80,0.00,,,0.00,Wunderground v.1.15,2013-11-27 14:15:00,
2013-11-27 07:20:00,49.4,43.5,30.08,NW,326,5.0,5.0,80,0.00,,,0.00,Wunderground v.1.15,2013-11-27 14:20:00,
2013-11-27 07:25:00,49.4,43.5,30.09,NNW,340,4.0,7.0,80,0.00,,,0.00,Wunderground v.1.15,2013-11-27 14:25:00,
2013-11-27 07:30:00,49.4,43.5,30.08,North,11,3.0,3.0,80,0.00,,,0.00,Wunderground v.1.15,2013-11-27 14:30:00,
2013-11-27 07:35:00,49.4,43.5,30.09,SW,226,0.0,3.0,80,0.00,,,0.00,Wunderground v.1.15,2013-11-27 14:35:00,
2013-11-27 07:40:00,49.4,43.5,30.09,SSE,160,0.0,0.0,80,0.00,,,0.00,Wunderground v.1.15,2013-11-27 14:40:00,
2013-11-27 07:45:00,49.5,43.6,30.09,North,357,0.0,2.0,80,0.00,,,0.00,Wunderground v.1.15,2013-11-27 14:45:00,
2013-11-27 07:50:00,49.8,43.9,30.09,WSW,250,0.0,5.0,80,0.00,,,0.00,Wunderground v.1.15,2013-11-27 14:50:00,
2013-11-27 07:55:00,50.0,43.7,30.09,NE,47,3.0,5.0,79,0.00,,,0.00,Wunderground v.1.15,2013-11-27 14:55:00,
2013-11-27 08:00:00,50.2,43.9,30.09,East,98,1.0,2.0,79,0.00,,,0.00,Wunderground v.1.15,2013-11-27 15:00:00,
2013-11-27 08:05:00,50.1,43.8,30.09,NE,38,1.0,8.0,79,0.00,,,0.00,Wunderground v.1.15,2013-11-27 15:05:00,
2013-11-27 08:10:00,50.1,43.8,30.09,North,8,1.0,4.0,79,0.00,,,0.00,Wunderground v.1.15,2013-11-27 15:10:00,
2013-11-27 08:15:00,50.0,44.1,30.09,NE,38,2.0,6.0,80,0.00,,,0.00,Wunderground v.1.15,2013-11-27 15:15:00,
2013-11-27 08:20:00,50.1,44.2,30.09,NNE,26,0.0,2.0,80,0.00,,,0.00,Wunderground v.1.15,2013-11-27 15:20:00,
2013-11-27 08:25:00,50.2,44.3,30.09,ESE,102,2.0,4.0,80,0.00,,,0.00,Wunderground v.1.15,2013-11-27 15:25:00,
2013-11-27 08:30:00,50.4,44.1,30.09,SSW,198,0.0,6.0,79,0.00,,,0.00,Wunderground v.1.15,2013-11-27 15:30:00,
2013-11-27 08:36:00,50.7,44.4,30.09,North,352,0.0,7.0,79,0.00,,,0.00,Wunderground v.1.15,2013-11-27 15:36:00,
2013-11-27 08:40:00,51.0,44.4,30.09,NNE,17,4.0,6.0,78,0.00,,,0.00,Wunderground v.1.15,2013-11-27 15:40:00,
2013-11-27 08:45:00,51.5,44.5,30.09,NNE,18,4.0,11.0,77,0.00,,,0.00,Wunderground v.1.15,2013-11-27 15:45:00,
2013-11-27 08:50:00,52.0,44.7,30.09,NNE,27,3.0,9.0,76,0.00,,,0.00,Wunderground v.1.15,2013-11-27 15:50:00,
2013-11-27 08:55:00,52.4,44.7,30.09,ENE,65,4.0,11.0,75,0.00,,,0.00,Wunderground v.1.15,2013-11-27 15:55:00,
2013-11-27 09:00:00,53.0,44.9,30.09,ENE,66,3.0,9.0,74,0.00,,,0.00,Wunderground v.1.15,2013-11-27 16:00:00,
2013-11-27 09:06:00,53.6,45.2,30.09,North,8,9.0,10.0,73,0.00,,,0.00,Wunderground v.1.15,2013-11-27 16:06:00,
2013-11-27 09:11:00,54.0,45.2,30.09,NNE,12,8.0,8.0,72,0.00,,,0.00,Wunderground v.1.15,2013-11-27 16:11:00,
2013-11-27 09:16:00,54.5,45.3,30.09,NW,321,1.0,10.0,71,0.00,,,0.00,Wunderground v.1.15,2013-11-27 16:16:00,
2013-11-27 09:21:00,55.1,45.5,30.09,NNE,25,3.0,3.0,70,0.00,,,0.00,Wunderground v.1.15,2013-11-27 16:21:00,
2013-11-27 09:26:00,55.7,45.7,30.09,NNE,13,5.0,11.0,69,0.00,,,0.00,Wunderground v.1.15,2013-11-27 16:26:00,
2013-11-27 09:31:00,56.2,45.4,30.09,North,1,3.0,12.0,67,0.00,,,0.00,Wunderground v.1.15,2013-11-27 16:31:00,
2013-11-27 09:36:00,57.0,45.7,30.10,ESE,117,0.0,12.0,66,0.00,,,0.00,Wunderground v.1.15,2013-11-27 16:36:00,
2013-11-27 09:41:00,57.7,45.6,30.10,NNE,25,2.0,6.0,64,0.00,,,0.00,Wunderground v.1.15,2013-11-27 16:41:00,
2013-11-27 09:46:00,58.2,45.2,30.10,SSW,204,0.0,7.0,62,0.00,,,0.00,Wunderground v.1.15,2013-11-27 16:46:00,
2013-11-27 09:51:00,58.2,45.7,30.09,NE,48,1.0,3.0,63,0.00,,,0.00,Wunderground v.1.15,2013-11-27 16:51:00,
2013-11-27 09:56:00,58.2,45.7,30.09,NNE,18,5.0,9.0,63,0.00,,,0.00,Wunderground v.1.15,2013-11-27 16:56:00,
2013-11-27 10:01:00,58.4,45.8,30.10,NW,323,2.0,5.0,63,0.00,,,0.00,Wunderground v.1.15,2013-11-27 17:01:00,
2013-11-27 10:06:00,58.7,45.7,30.09,East,100,4.0,9.0,62,0.00,,,0.00,Wunderground v.1.15,2013-11-27 17:06:00,
2013-11-27 10:11:00,59.0,46.4,30.09,NNW,337,1.0,4.0,63,0.00,,,0.00,Wunderground v.1.15,2013-11-27 17:11:00,
2013-11-27 10:16:00,59.5,46.5,30.09,North,358,2.0,6.0,62,0.00,,,0.00,Wunderground v.1.15,2013-11-27 17:16:00,
2013-11-27 10:21:00,59.9,46.0,30.09,East,81,1.0,3.0,60,0.00,,,0.00,Wunderground v.1.15,2013-11-27 17:21:00,
2013-11-27 10:26:00,60.1,46.2,30.09,NNW,330,5.0,7.0,60,0.00,,,0.00,Wunderground v.1.15,2013-11-27 17:26:00,
2013-11-27 10:31:00,60.3,45.5,30.09,ESE,111,1.0,12.0,58,0.00,,,0.00,Wunderground v.1.15,2013-11-27 17:31:00,
2013-11-27 10:36:00,60.5,45.6,30.09,WNW,290,1.0,12.0,58,0.00,,,0.00,Wunderground v.1.15,2013-11-27 17:36:00,
2013-11-27 10:41:00,60.7,45.8,30.09,ENE,70,0.0,6.0,58,0.00,,,0.00,Wunderground v.1.15,2013-11-27 17:41:00,
2013-11-27 10:46:00,61.2,45.4,30.09,SE,141,1.0,11.0,56,0.00,,,0.00,Wunderground v.1.15,2013-11-27 17:46:00,
2013-11-27 10:51:00,61.9,45.5,30.09,ENE,59,1.0,2.0,55,0.00,,,0.00,Wunderground v.1.15,2013-11-27 17:51:00,
2013-11-27 10:56:00,62.4,45.5,30.08,ESE,102,0.0,7.0,54,0.00,,,0.00,Wunderground v.1.15,2013-11-27 17:56:00,
2013-11-27 11:01:00,62.8,44.9,30.08,South,190,0.0,3.0,52,0.00,,,0.00,Wunderground v.1.15,2013-11-27 18:01:00,
2013-11-27 11:06:00,63.3,44.9,30.08,ENE,77,0.0,5.0,51,0.00,,,0.00,Wunderground v.1.15,2013-11-27 18:06:00,
2013-11-27 11:11:00,63.7,44.7,30.08,NW,318,0.0,11.0,50,0.00,,,0.00,Wunderground v.1.15,2013-11-27 18:11:00,
2013-11-27 11:16:00,63.8,45.3,30.07,North,356,0.0,11.0,51,0.00,,,0.00,Wunderground v.1.15,2013-11-27 18:16:00,
2013-11-27 11:21:00,64.1,45.1,30.07,WNW,298,1.0,10.0,50,0.00,,,0.00,Wunderground v.1.15,2013-11-27 18:21:00,
2013-11-27 11:26:00,64.2,44.1,30.06,North,9,4.0,11.0,48,0.00,,,0.00,Wunderground v.1.15,2013-11-27 18:26:00,
2013-11-27 11:31:00,64.7,44.5,30.06,NE,44,2.0,6.0,48,0.00,,,0.00,Wunderground v.1.15,2013-11-27 18:31:00,
2013-11-27 11:36:00,65.0,43.7,30.06,NNW,328,1.0,7.0,46,0.00,,,0.00,Wunderground v.1.15,2013-11-27 18:36:00,
2013-11-27 11:41:00,65.3,43.4,30.05,NNW,333,0.0,4.0,45,0.00,,,0.00,Wunderground v.1.15,2013-11-27 18:41:00,
2013-11-27 11:46:00,65.5,43.0,30.05,SW,217,0.0,11.0,44,0.00,,,0.00,Wunderground v.1.15,2013-11-27 18:46:00,
2013-11-27 11:51:00,65.8,43.3,30.05,NE,40,2.0,9.0,44,0.00,,,0.00,Wunderground v.1.15,2013-11-27 18:51:00,
2013-11-27 11:56:00,65.8,43.9,30.05,ENE,70,0.0,14.0,45,0.00,,,0.00,Wunderground v.1.15,2013-11-27 18:56:00,
2013-11-27 12:01:00,66.1,43.5,30.04,SSE,149,0.0,9.0,44,0.00,,,0.00,Wunderground v.1.15,2013-11-27 19:01:00,
2013-11-27 12:06:00,66.2,43.6,30.03,NE,54,0.0,12.0,44,0.00,,,0.00,Wunderground v.1.15,2013-11-27 19:06:00,
2013-11-27 12:11:00,66.5,43.9,30.03,NNW,340,0.0,8.0,44,0.00,,,0.00,Wunderground v.1.15,2013-11-27 19:11:00,
2013-11-27 12:16:00,66.6,43.4,30.03,SE,141,0.0,8.0,43,0.00,,,0.00,Wunderground v.1.15,2013-11-27 19:16:00,
2013-11-27 12:21:00,66.9,42.4,30.02,SSW,201,0.0,5.0,41,0.00,,,0.00,Wunderground v.1.15,2013-11-27 19:21:00,
2013-11-27 12:26:00,67.2,41.4,30.02,North,11,4.0,15.0,39,0.00,,,0.00,Wunderground v.1.15,2013-11-27 19:26:00,
2013-11-27 12:31:00,67.2,42.7,30.02,NNW,327,0.0,7.0,41,0.00,,,0.00,Wunderground v.1.15,2013-11-27 19:31:00,
2013-11-27 12:36:00,67.4,41.6,30.01,NW,323,6.0,7.0,39,0.00,,,0.00,Wunderground v.1.15,2013-11-27 19:36:00,
2013-11-27 12:41:00,67.7,41.2,30.01,SW,217,0.0,1.0,38,0.00,,,0.00,Wunderground v.1.15,2013-11-27 19:41:00,
2013-11-27 12:46:00,68.2,42.3,30.01,NNW,348,5.0,9.0,39,0.00,,,0.00,Wunderground v.1.15,2013-11-27 19:46:00,
2013-11-27 12:51:00,68.8,40.7,30.00,NE,56,0.0,2.0,36,0.00,,,0.00,Wunderground v.1.15,2013-11-27 19:51:00,
2013-11-27 12:56:00,69.8,34.3,30.00,WNW,294,0.0,5.0,27,0.00,,,0.00,Wunderground v.1.15,2013-11-27 19:56:00,
2013-11-27 13:01:00,70.5,33.9,29.99,East,87,3.0,6.0,26,0.00,,,0.00,Wunderground v.1.15,2013-11-27 20:01:00,
2013-11-27 13:06:00,70.7,33.1,29.99,East,98,0.0,10.0,25,0.00,,,0.00,Wunderground v.1.15,2013-11-27 20:06:00,
2013-11-27 13:11:00,71.0,33.4,29.99,NE,56,0.0,3.0,25,0.00,,,0.00,Wunderground v.1.15,2013-11-27 20:11:00,
2013-11-27 13:16:00,70.9,34.3,29.98,NNE,23,0.0,8.0,26,0.00,,,0.00,Wunderground v.1.15,2013-11-27 20:16:00,
2013-11-27 13:21:00,70.6,32.0,29.98,ENE,58,0.0,5.0,24,0.00,,,0.00,Wunderground v.1.15,2013-11-27 20:21:00,
2013-11-27 13:26:00,70.4,32.9,29.98,ENE,72,3.0,9.0,25,0.00,,,0.00,Wunderground v.1.15,2013-11-27 20:26:00,
2013-11-27 13:31:00,70.2,32.7,29.98,ENE,72,7.0,7.0,25,0.00,,,0.00,Wunderground v.1.15,2013-11-27 20:31:00,
2013-11-27 13:36:00,70.0,34.5,29.98,ENE,61,6.0,7.0,27,0.00,,,0.00,Wunderground v.1.15,2013-11-27 20:36:00,
2013-11-27 13:41:00,69.9,34.4,29.98,ENE,68,0.0,1.0,27,0.00,,,0.00,Wunderground v.1.15,2013-11-27 20:41:00,
2013-11-27 13:46:00,70.1,33.6,29.97,East,95,1.0,6.0,26,0.00,,,0.00,Wunderground v.1.15,2013-11-27 20:46:00,
2013-11-27 13:51:00,70.5,31.9,29.97,East,86,0.0,6.0,24,0.00,,,0.00,Wunderground v.1.15,2013-11-27 20:51:00,
2013-11-27 13:56:00,71.1,32.5,29.97,ESE,120,4.0,6.0,24,0.00,,,0.00,Wunderground v.1.15,2013-11-27 20:56:00,
2013-11-27 14:01:00,71.1,32.5,29.97,ENE,67,2.0,2.0,24,0.00,,,0.00,Wunderground v.1.15,2013-11-27 21:01:00,
2013-11-27 14:06:00,71.2,33.6,29.97,ENE,69,0.0,5.0,25,0.00,,,0.00,Wunderground v.1.15,2013-11-27 21:06:00,
2013-11-27 14:11:00,71.4,32.7,29.97,ESE,110,1.0,3.0,24,0.00,,,0.00,Wunderground v.1.15,2013-11-27 21:11:00,
2013-11-27 14:16:00,71.1,31.4,29.96,East,95,3.0,8.0,23,0.00,,,0.00,Wunderground v.1.15,2013-11-27 21:16:00,
2013-11-27 14:21:00,70.7,32.1,29.96,ENE,63,5.0,6.0,24,0.00,,,0.00,Wunderground v.1.15,2013-11-27 21:21:00,
2013-11-27 14:26:00,70.4,32.9,29.97,ESE,110,3.0,6.0,25,0.00,,,0.00,Wunderground v.1.15,2013-11-27 21:26:00,
2013-11-27 14:31:00,70.2,33.7,29.97,East,98,1.0,9.0,26,0.00,,,0.00,Wunderground v.1.15,2013-11-27 21:31:00,
2013-11-27 14:36:00,70.0,33.5,29.97,East,83,4.0,9.0,26,0.00,,,0.00,Wunderground v.1.15,2013-11-27 21:36:00,
2013-11-27 14:41:00,69.9,33.4,29.97,ESE,111,0.0,4.0,26,0.00,,,0.00,Wunderground v.1.15,2013-11-27 21:41:00,
2013-11-27 14:46:00,69.8,33.3,29.97,ENE,72,0.0,7.0,26,0.00,,,0.00,Wunderground v.1.15,2013-11-27 21:46:00,
2013-11-27 14:51:00,69.7,34.2,29.96,East,83,1.0,3.0,27,0.00,,,0.00,Wunderground v.1.15,2013-11-27 21:51:00,
2013-11-27 14:56:00,70.0,33.5,29.96,ENE,72,1.0,6.0,26,0.00,,,0.00,Wunderground v.1.15,2013-11-27 21:56:00,
2013-11-27 15:01:00,70.6,35.0,29.97,East,98,0.0,1.0,27,0.00,,,0.00,Wunderground v.1.15,2013-11-27 22:01:00,
2013-11-27 15:06:00,71.1,33.5,29.97,ESE,107,0.0,3.0,25,0.00,,,0.00,Wunderground v.1.15,2013-11-27 22:06:00,
2013-11-27 15:11:00,71.2,32.5,29.97,ESE,117,1.0,6.0,24,0.00,,,0.00,Wunderground v.1.15,2013-11-27 22:11:00,
2013-11-27 15:16:00,70.9,33.3,29.96,East,87,0.0,9.0,25,0.00,,,0.00,Wunderground v.1.15,2013-11-27 22:16:00,
2013-11-27 15:21:00,70.7,33.1,29.96,NE,51,4.0,8.0,25,0.00,,,0.00,Wunderground v.1.15,2013-11-27 22:21:00,
2013-11-27 15:26:00,70.9,32.3,29.95,East,90,6.0,10.0,24,0.00,,,0.00,Wunderground v.1.15,2013-11-27 22:26:00,
2013-11-27 15:31:00,71.1,32.5,29.95,ENE,62,5.0,8.0,24,0.00,,,0.00,Wunderground v.1.15,2013-11-27 22:31:00,
2013-11-27 15:36:00,71.4,32.7,29.95,ENE,62,1.0,10.0,24,0.00,,,0.00,Wunderground v.1.15,2013-11-27 22:36:00,
2013-11-27 15:41:00,71.4,32.7,29.95,ESE,102,6.0,9.0,24,0.00,,,0.00,Wunderground v.1.15,2013-11-27 22:41:00,
2013-11-27 15:46:00,71.4,32.7,29.95,ESE,120,7.0,9.0,24,0.00,,,0.00,Wunderground v.1.15,2013-11-27 22:46:00,
2013-11-27 15:51:00,71.2,32.5,29.95,NE,54,7.0,7.0,24,0.00,,,0.00,Wunderground v.1.15,2013-11-27 22:51:00,
2013-11-27 15:56:00,71.2,32.5,29.95,East,98,6.0,9.0,24,0.00,,,0.00,Wunderground v.1.15,2013-11-27 22:56:00,
2013-11-27 16:01:00,70.9,33.3,29.95,ESE,105,2.0,6.0,25,0.00,,,0.00,Wunderground v.1.15,2013-11-27 23:01:00,
2013-11-27 16:06:00,70.6,32.0,29.95,East,95,4.0,7.0,24,0.00,,,0.00,Wunderground v.1.15,2013-11-27 23:06:00,
2013-11-27 16:11:00,70.1,32.6,29.94,East,101,3.0,5.0,25,0.00,,,0.00,Wunderground v.1.15,2013-11-27 23:11:00,
2013-11-27 16:16:00,69.8,33.3,29.94,ENE,67,4.0,6.0,26,0.00,,,0.00,Wunderground v.1.15,2013-11-27 23:16:00,
2013-11-27 16:21:00,69.5,34.0,29.94,East,97,2.0,3.0,27,0.00,,,0.00,Wunderground v.1.15,2013-11-27 23:21:00,
2013-11-27 16:26:00,69.0,34.5,29.94,East,86,1.0,4.0,28,0.00,,,0.00,Wunderground v.1.15,2013-11-27 23:26:00,
2013-11-27 16:31:00,68.6,35.1,29.94,NE,56,0.0,1.0,29,0.00,,,0.00,Wunderground v.1.15,2013-11-27 23:31:00,
2013-11-27 16:36:00,68.2,34.7,29.94,ENE,72,1.0,3.0,29,0.00,,,0.00,Wunderground v.1.15,2013-11-27 23:36:00,
2013-11-27 16:41:00,67.9,35.3,29.94,East,81,1.0,2.0,30,0.00,,,0.00,Wunderground v.1.15,2013-11-27 23:41:00,
2013-11-27 16:46:00,67.5,36.6,29.94,East,86,0.0,2.0,32,0.00,,,0.00,Wunderground v.1.15,2013-11-27 23:46:00,
2013-11-27 16:51:00,67.2,36.3,29.95,ENE,72,0.0,1.0,32,0.00,,,0.00,Wunderground v.1.15,2013-11-27 23:51:00,
2013-11-27 16:56:00,67.5,35.8,29.95,East,79,0.0,1.0,31,0.00,,,0.00,Wunderground v.1.15,2013-11-27 23:56:00,
2013-11-27 17:01:00,67.8,35.2,29.94,East,80,0.0,1.0,30,0.00,,,0.00,Wunderground v.1.15,2013-11-28 00:01:00,
2013-11-27 17:06:00,68.0,35.4,29.94,East,81,0.0,1.0,30,0.00,,,0.00,Wunderground v.1.15,2013-11-28 00:06:00,
2013-11-27 17:11:00,67.9,36.1,29.95,East,86,0.0,0.0,31,0.00,,,0.00,Wunderground v.1.15,2013-11-28 00:11:00,
2013-11-27 17:16:00,67.9,35.3,29.94,East,93,0.0,0.0,30,0.00,,,0.00,Wunderground v.1.15,2013-11-28 00:16:00,
2013-11-27 17:21:00,67.9,36.1,29.94,East,91,0.0,0.0,31,0.00,,,0.00,Wunderground v.1.15,2013-11-28 00:21:00,
2013-11-27 17:26:00,67.7,36.8,29.95,East,101,0.0,0.0,32,0.00,,,0.00,Wunderground v.1.15,2013-11-28 00:26:00,
2013-11-27 17:31:00,67.2,36.3,29.95,ENE,77,0.0,0.0,32,0.00,,,0.00,Wunderground v.1.15,2013-11-28 00:31:00,
2013-11-27 17:36:00,66.7,37.4,29.95,ENE,77,0.0,0.0,34,0.00,,,0.00,Wunderground v.1.15,2013-11-28 00:36:00,
2013-11-27 17:41:00,66.2,37.0,29.95,ESE,110,0.0,0.0,34,0.00,,,0.00,Wunderground v.1.15,2013-11-28 00:41:00,
2013-11-27 17:46:00,65.8,36.6,29.95,East,86,0.0,1.0,34,0.00,,,0.00,Wunderground v.1.15,2013-11-28 00:46:00,
2013-11-27 17:51:00,65.5,36.4,29.95,East,87,0.0,0.0,34,0.00,,,0.00,Wunderground v.1.15,2013-11-28 00:51:00,
2013-11-27 17:56:00,65.0,37.4,29.95,ENE,76,0.0,0.0,36,0.00,,,0.00,Wunderground v.1.15,2013-11-28 00:56:00,
2013-11-27 18:01:00,64.2,39.4,29.95,ESE,103,0.0,0.0,40,0.00,,,0.00,Wunderground v.1.15,2013-11-28 01:01:00,
2013-11-27 18:06:00,63.8,37.7,29.95,ESE,110,0.0,3.0,38,0.00,,,0.00,Wunderground v.1.15,2013-11-28 01:06:00,
2013-11-27 18:12:00,63.7,37.6,29.95,ESE,105,0.0,0.0,38,0.00,,,0.00,Wunderground v.1.15,2013-11-28 01:12:00,
2013-11-27 18:17:00,63.4,38.0,29.95,ESE,102,0.0,0.0,39,0.00,,,0.00,Wunderground v.1.15,2013-11-28 01:17:00,
2013-11-27 18:22:00,62.8,38.1,29.96,ESE,106,0.0,0.0,40,0.00,,,0.00,Wunderground v.1.15,2013-11-28 01:22:00,
2013-11-27 18:27:00,62.2,38.8,29.96,ESE,108,0.0,0.0,42,0.00,,,0.00,Wunderground v.1.15,2013-11-28 01:27:00,
2013-11-27 18:32:00,62.0,38.0,29.96,ESE,108,0.0,0.0,41,0.00,,,0.00,Wunderground v.1.15,2013-11-28 01:32:00,
2013-11-27 18:37:00,62.1,37.5,29.96,ESE,111,0.0,1.0,40,0.00,,,0.00,Wunderground v.1.15,2013-11-28 01:37:00,
2013-11-27 18:42:00,62.3,37.0,29.97,East,97,0.0,0.0,39,0.00,,,0.00,Wunderground v.1.15,2013-11-28 01:42:00,
2013-11-27 18:47:00,62.1,36.8,29.97,East,98,0.0,0.0,39,0.00,,,0.00,Wunderground v.1.15,2013-11-28 01:47:00,
2013-11-27 18:52:00,62.1,36.8,29.97,ENE,72,0.0,0.0,39,0.00,,,0.00,Wunderground v.1.15,2013-11-28 01:52:00,
2013-11-27 18:57:00,61.2,39.1,29.97,North,11,0.0,1.0,44,0.00,,,0.00,Wunderground v.1.15,2013-11-28 01:57:00,
2013-11-27 19:02:00,59.7,38.9,29.97,NE,34,0.0,0.0,46,0.00,,,0.00,Wunderground v.1.15,2013-11-28 02:02:00,
2013-11-27 19:07:00,58.9,40.3,29.97,NE,34,0.0,0.0,50,0.00,,,0.00,Wunderground v.1.15,2013-11-28 02:07:00,
2013-11-27 19:12:00,58.8,37.5,29.97,East,93,0.0,1.0,45,0.00,,,0.00,Wunderground v.1.15,2013-11-28 02:12:00,
2013-11-27 19:17:00,60.1,37.5,29.97,East,100,0.0,2.0,43,0.00,,,0.00,Wunderground v.1.15,2013-11-28 02:17:00,
2013-11-27 19:22:00,60.4,39.5,29.97,ESE,117,0.0,0.0,46,0.00,,,0.00,Wunderground v.1.15,2013-11-28 02:22:00,
2013-11-27 19:27:00,59.6,39.9,29.97,ESE,105,0.0,0.0,48,0.00,,,0.00,Wunderground v.1.15,2013-11-28 02:27:00,
2013-11-27 19:32:00,59.4,38.6,29.97,ESE,114,0.0,0.0,46,0.00,,,0.00,Wunderground v.1.15,2013-11-28 02:32:00,
2013-11-27 19:37:00,59.8,38.4,29.97,ESE,106,0.0,0.0,45,0.00,,,0.00,Wunderground v.1.15,2013-11-28 02:37:00,
2013-11-27 19:42:00,59.9,39.1,29.97,ESE,105,0.0,0.0,46,0.00,,,0.00,Wunderground v.1.15,2013-11-28 02:42:00,
2013-11-27 19:47:00,59.7,38.3,29.97,SE,125,0.0,0.0,45,0.00,,,0.00,Wunderground v.1.15,2013-11-28 02:47:00,
2013-11-27 19:52:00,59.9,39.6,29.97,ESE,113,0.0,0.0,47,0.00,,,0.00,Wunderground v.1.15,2013-11-28 02:52:00,
2013-11-27 19:57:00,59.1,39.4,29.97,ESE,115,0.0,0.0,48,0.00,,,0.00,Wunderground v.1.15,2013-11-28 02:57:00,
2013-11-27 20:02:00,57.1,39.1,29.97,North,3,0.0,0.0,51,0.00,,,0.00,Wunderground v.1.15,2013-11-28 03:02:00,
2013-11-27 20:07:00,55.3,39.9,29.97,ESE,106,0.0,0.0,56,0.00,,,0.00,Wunderground v.1.15,2013-11-28 03:07:00,
2013-11-27 20:12:00,54.7,40.6,29.97,ESE,106,0.0,0.0,59,0.00,,,0.00,Wunderground v.1.15,2013-11-28 03:12:00,
2013-11-27 20:17:00,54.3,40.7,29.97,North,9,0.0,0.0,60,0.00,,,0.00,Wunderground v.1.15,2013-11-28 03:17:00,
2013-11-27 20:22:00,53.8,39.8,29.97,ENE,75,0.0,0.0,59,0.00,,,0.00,Wunderground v.1.15,2013-11-28 03:22:00,
2013-11-27 20:27:00,54.3,39.8,29.97,ENE,77,0.0,0.0,58,0.00,,,0.00,Wunderground v.1.15,2013-11-28 03:27:00,
2013-11-27 20:32:00,54.4,39.9,29.97,ENE,76,0.0,0.0,58,0.00,,,0.00,Wunderground v.1.15,2013-11-28 03:32:00,
2013-11-27 20:37:00,54.1,40.1,29.97,ENE,68,0.0,0.0,59,0.00,,,0.00,Wunderground v.1.15,2013-11-28 03:37:00,
2013-11-27 20:42:00,53.9,39.9,29.97,ENE,68,0.0,0.0,59,0.00,,,0.00,Wunderground v.1.15,2013-11-28 03:42:00,
2013-11-27 20:47:00,53.6,40.5,29.97,WNW,283,0.0,0.0,61,0.00,,,0.00,Wunderground v.1.15,2013-11-28 03:47:00,
2013-11-27 20:52:00,53.0,40.7,29.97,WNW,284,0.0,0.0,63,0.00,,,0.00,Wunderground v.1.15,2013-11-28 03:52:00,
2013-11-27 20:57:00,52.2,39.1,29.97,WNW,283,0.0,0.0,61,0.00,,,0.00,Wunderground v.1.15,2013-11-28 03:57:00,
2013-11-27 21:02:00,51.6,39.0,29.97,North,4,0.0,0.0,62,0.00,,,0.00,Wunderground v.1.15,2013-11-28 04:02:00,
2013-11-27 21:07:00,51.4,38.8,29.97,NNE,16,0.0,0.0,62,0.00,,,0.00,Wunderground v.1.15,2013-11-28 04:07:00,
2013-11-27 21:12:00,51.7,39.5,29.97,ENE,59,0.0,0.0,63,0.00,,,0.00,Wunderground v.1.15,2013-11-28 04:12:00,
2013-11-27 21:17:00,51.6,40.2,29.97,East,82,0.0,0.0,65,0.00,,,0.00,Wunderground v.1.15,2013-11-28 04:17:00,
2013-11-27 21:22:00,52.4,40.6,29.97,ESE,121,0.0,0.0,64,0.00,,,0.00,Wunderground v.1.15,2013-11-28 04:22:00,
2013-11-27 21:27:00,52.5,40.7,29.97,ESE,121,0.0,0.0,64,0.00,,,0.00,Wunderground v.1.15,2013-11-28 04:27:00,
2013-11-27 21:32:00,52.4,41.4,29.97,ESE,111,0.0,0.0,66,0.00,,,0.00,Wunderground v.1.15,2013-11-28 04:32:00,
2013-11-27 21:37:00,52.4,41.4,29.98,ESE,112,0.0,0.0,66,0.00,,,0.00,Wunderground v.1.15,2013-11-28 04:37:00,
2013-11-27 21:42:00,52.6,41.6,29.98,ESE,112,0.0,0.0,66,0.00,,,0.00,Wunderground v.1.15,2013-11-28 04:42:00,
2013-11-27 21:47:00,52.6,40.8,29.99,WNW,285,0.0,0.0,64,0.00,,,0.00,Wunderground v.1.15,2013-11-28 04:47:00,
2013-11-27 21:52:00,52.6,41.6,29.99,WNW,293,0.0,0.0,66,0.00,,,0.00,Wunderground v.1.15,2013-11-28 04:52:00,
2013-11-27 21:57:00,52.8,40.5,29.99,ENE,68,0.0,0.0,63,0.00,,,0.00,Wunderground v.1.15,2013-11-28 04:57:00,
2013-11-27 22:01:00,53.0,39.9,29.99,ENE,71,0.0,0.0,61,0.00,,,0.00,Wunderground v.1.15,2013-11-28 05:01:00,
2013-11-27 22:02:00,53.1,39.6,29.99,NNW,336,0.0,0.0,60,0.00,,,0.00,Wunderground v.1.15,2013-11-28 05:02:00,
2013-11-27 22:07:00,53.4,39.4,29.99,North,6,0.0,0.0,59,0.00,,,0.00,Wunderground v.1.15,2013-11-28 05:07:00,
2013-11-27 22:12:00,53.6,39.6,29.99,NNE,15,0.0,0.0,59,0.00,,,0.00,Wunderground v.1.15,2013-11-28 05:12:00,
2013-11-27 22:17:00,53.6,39.2,29.99,East,87,0.0,0.0,58,0.00,,,0.00,Wunderground v.1.15,2013-11-28 05:17:00,
2013-11-27 22:22:00,53.7,39.3,29.99,NE,56,0.0,0.0,58,0.00,,,0.00,Wunderground v.1.15,2013-11-28 05:22:00,
2013-11-27 22:27:00,54.1,39.6,29.99,East,84,0.0,1.0,58,0.00,,,0.00,Wunderground v.1.15,2013-11-28 05:27:00,
2013-11-27 22:32:00,54.3,39.4,29.99,ENE,75,0.0,0.0,57,0.00,,,0.00,Wunderground v.1.15,2013-11-28 05:32:00,
2013-11-27 22:37:00,54.4,39.5,29.99,ENE,68,0.0,0.0,57,0.00,,,0.00,Wunderground v.1.15,2013-11-28 05:37:00,
2013-11-27 22:42:00,54.3,39.4,29.99,ENE,70,0.0,0.0,57,0.00,,,0.00,Wunderground v.1.15,2013-11-28 05:42:00,
2013-11-27 22:47:00,54.4,39.5,29.99,ENE,69,0.0,0.0,57,0.00,,,0.00,Wunderground v.1.15,2013-11-28 05:47:00,
2013-11-27 22:52:00,54.2,39.3,29.99,ENE,73,0.0,0.0,57,0.00,,,0.00,Wunderground v.1.15,2013-11-28 05:52:00,
2013-11-27 22:57:00,54.2,39.3,29.99,ENE,71,0.0,2.0,57,0.00,,,0.00,Wunderground v.1.15,2013-11-28 05:57:00,
2013-11-27 23:02:00,54.3,39.4,29.98,ENE,71,0.0,0.0,57,0.00,,,0.00,Wunderground v.1.15,2013-11-28 06:02:00,
2013-11-27 23:07:00,54.1,39.6,29.98,ENE,72,0.0,0.0,58,0.00,,,0.00,Wunderground v.1.15,2013-11-28 06:07:00,
2013-11-27 23:12:00,53.7,39.7,29.98,NE,43,0.0,0.0,59,0.00,,,0.00,Wunderground v.1.15,2013-11-28 06:12:00,
2013-11-27 23:17:00,53.4,39.9,29.98,NNW,340,0.0,0.0,60,0.00,,,0.00,Wunderground v.1.15,2013-11-28 06:17:00,
2013-11-27 23:22:00,53.0,39.9,29.98,North,354,0.0,0.0,61,0.00,,,0.00,Wunderground v.1.15,2013-11-28 06:22:00,
2013-11-27 23:27:00,52.5,39.8,29.98,North,354,0.0,0.0,62,0.00,,,0.00,Wunderground v.1.15,2013-11-28 06:27:00,
2013-11-27 23:32:00,51.7,39.9,29.98,North,356,0.0,0.0,64,0.00,,,0.00,Wunderground v.1.15,2013-11-28 06:32:00,
2013-11-27 23:37:00,51.1,39.7,29.98,North,4,0.0,0.0,65,0.00,,,0.00,Wunderground v.1.15,2013-11-28 06:37:00,
2013-11-27 23:42:00,50.6,39.7,29.98,North,3,0.0,0.0,66,0.00,,,0.00,Wunderground v.1.15,2013-11-28 06:42:00,
2013-11-27 23:47:00,50.2,39.7,29.98,North,3,0.0,0.0,67,0.00,,,0.00,Wunderground v.1.15,2013-11-28 06:47:00,
2013-11-27 23:52:00,50.4,39.5,29.98,NNE,20,0.0,0.0,66,0.00,,,0.00,Wunderground v.1.15,2013-11-28 06:52:00,
2013-11-27 23:57:00,51.0,39.6,29.97,ENE,64,0.0,0.0,65,0.00,,,0.00,Wunderground v.1.15,2013-11-28 06:57:00,